Regional Weather Roundup
Issued by NWS Kansas City/Pleasant Hill, MO

Home | Current Version | Previous Version | Text Only | Print | Product List | Glossary On
Versions: 1 2 3 4 5 6 7 8 9 10 11 12 13 14 15 16 17 18 19 20 21 22 23 24 25 26 27 28 29 30 31 32 33 34 35 36 37 38 39 40 41 42 43 44 45 46 47 48 49 50
000
ASUS43 KEAX 210410
RWREAX

WEATHER ROUNDUP FOR EASTERN KANSAS AND NORTHWEST MISSOURI
NATIONAL WEATHER SERVICE KANSAS CITY/PLEASANT HILL MO
1100 PM CDT SUN APR 20 2014

KSZ040-057-103>105-MOZ028-029-037-043-210500-
...KANSAS CITY METROPOLITAN AREA...

CITY           SKY/WX    TMP DP  RH WIND       PRES   REMARKS
K.C. INTL      CLOUDY    64  55  72 S8        30.02S
K.C. DOWNTOWN  LGT RAIN  68  54  60 S9        30.01S
LEES SUMMIT    CLOUDY    67  53  61 S6        30.03F
OLATHE - IXD   CLOUDY    66  53  63 SE7       30.03S
OLATHE - OJC   CLOUDY    64  53  67 S5        30.02S
LAWRENCE       CLOUDY    65  56  72 E6        30.02S

$$

MOZ001>008-011>017-020>025-030>033-038>040-044>046-053-054-210500-
...NORTHERN AND CENTRAL MISSOURI...

CITY           SKY/WX    TMP DP  RH WIND       PRES   REMARKS
ST. JOSEPH     CLOUDY    65  55  70 S3        30.01S
MOSBY          CLOUDY    68  54  60 CALM      30.02S
WARRENSBURG    CLOUDY   N/A N/A N/A S3        30.03F
WHITEMAN AFB   CLOUDY    65  51  62 S5        30.03F
CLINTON        CLOUDY    63  57  82 CALM      30.04F
SEDALIA        CLOUDY    67  54  63 SW5       30.04S
WARSAW         NOT AVBL
MARSHALL         N/A     70  55  60 S5        30.04S
CHILLICOTHE      N/A     70  52  52 S6        30.02F
MOBERLY        CLOUDY    68  48  49 SW5       30.03S
KIRKSVILLE     CLOUDY    68  49  50 SW5       30.02S

$$

MOZ041-047>049-056>058-063>065-088>090-097-210500-
...EASTERN AND SOUTHERN MISSOURI...

CITY           SKY/WX    TMP DP  RH WIND       PRES   REMARKS
ST. LOUIS INTL CLOUDY    73  43  33 S10       30.04F
SPIRIT OF STL  CLOUDY    72  41  32 S8        30.03S
COLUMBIA       CLOUDY    68  50  52 SW6       30.03S
JEFFERSON CITY MOCLDY    66  51  58 CALM      30.03R
MEXICO         CLOUDY    66  50  55 SW5       30.03S
HANNIBAL       PTCLDY    68  45  42 S3        30.02S
ROLLA          MOCLDY    64  49  57 S7        30.04S
LEBANON        CLOUDY    66  46  48 CALM      30.06F
OSAGE BEACH    CLOUDY    64  48  55 SE5       30.06S
SPRINGFIELD    CLOUDY    62  51  67 S5        30.05F
BRANSON        PTCLDY    64  48  55 S3        30.08F
NEVADA         MOCLDY    63  54  72 S3        30.04F
JOPLIN         MOCLDY    64  51  62 SE6       30.04F
WEST PLAINS    MOCLDY    66  45  46 S7        30.09S

$$

IAZ060-094-KSZ022-034>040-054-083-096-NEZ052-066-093-210500-
...KANSAS...SOUTHEAST NEBRASKA AND IOWA...

CITY           SKY/WX    TMP DP  RH WIND       PRES   REMARKS
TOPEKA         CLOUDY    65  59  81 E6        30.01S
MANHATTAN      CLOUDY    64  58  80 S3        29.98F
EMPORIA        CLOUDY    63  54  72 S9        30.00S
CHANUTE        CLOUDY    63  54  72 S8        30.02S
WICHITA        MOCLDY    62  53  72 S10       30.00R
OMAHA          LGT RAIN  62  58  86 SE10      29.97R
LINCOLN        MOCLDY    61  56  83 SE5       29.97S
FALLS CITY     LGT RAIN  65  59  81 S14       29.98
LAMONI         CLOUDY    66  53  63 SW9       29.99S
DES MOINES     CLOUDY    70  53  54 SW7       29.97R

$$




USA.gov is the U.S. government's official web portal to all federal, state and local government web resources and services.